When you browse on this site, cookies collect data to enhance your experience and personalize the content and advertising you see.
Visit our Privacy Policy to learn more. By continuing to use the site, you agree to this use of cookies and data.
  • En España
  • Lista de países
  • Para 7 días
  • Temperatura del agua
  • El tiempo en el mapa
  • Informadores
  • user-avatar
    Iniciar sesión

    Tiempo cada hora Batina

    Hoy, 23 Octubre, Miércoles

    Tiempo Temperatura Precipitaciones Viento Presión Humedad
    00:00 +21°C° 0 mm 10 mps 667 mmHg 50%
    01:00 +21°C° 0 mm 9 mps 667 mmHg 50%
    02:00 +21°C° 0 mm 8 mps 666 mmHg 50%
    03:00 +20°C° 0 mm 8 mps 666 mmHg 50%
    04:00 +20°C° 0 mm 8 mps 666 mmHg 50%
    05:00 +20°C° 0 mm 8 mps 666 mmHg 50%
    06:00 +20°C° 0 mm 8 mps 666 mmHg 50%
    07:00 +21°C° 0 mm 10 mps 667 mmHg 44%
    08:00 +23°C° 0 mm 12 mps 668 mmHg 37%
    09:00 +26°C° 0 mm 14 mps 669 mmHg 30%
    10:00 +26°C° 0 mm 13 mps 668 mmHg 29%
    11:00 +26°C° 0 mm 13 mps 668 mmHg 27%
    12:00 +26°C° 0 mm 13 mps 668 mmHg 26%
    13:00 +24°C° 0 mm 12 mps 668 mmHg 24%
    14:00 +23°C° 0 mm 11 mps 668 mmHg 23%
    15:00 +23°C° 0 mm 10 mps 668 mmHg 21%
    16:00 +20°C° 0 mm 7 mps 668 mmHg 28%
    17:00 +17°C° 0 mm 5 mps 668 mmHg 35%
    18:00 +16°C° 0 mm 2 mps 668 mmHg 42%
    19:00 +15°C° 0 mm 2 mps 668 mmHg 45%
    20:00 +14°C° 0 mm 2 mps 668 mmHg 48%
    21:00 +14°C° 0 mm 1 mps 669 mmHg 52%
    22:00 +13°C° 0 mm 1 mps 669 mmHg 57%
    23:00 +13°C° 0 mm 1 mps 668 mmHg 63%

    Mañana, 24 Octubre, Jueves

    Tiempo Temperatura Precipitaciones Viento Presión Humedad
    00:00 +12°C° 0 mm 1 mps 668 mmHg 69%
    01:00 +12°C° 0 mm 1 mps 668 mmHg 74%
    02:00 +12°C° 0 mm 1 mps 668 mmHg 78%
    03:00 +12°C° 0 mm 1 mps 668 mmHg 82%
    04:00 +11°C° 0 mm 1 mps 668 mmHg 83%
    05:00 +11°C° 0 mm 1 mps 668 mmHg 84%
    06:00 +10°C° 0 mm 2 mps 668 mmHg 85%
    07:00 +12°C° 0 mm 2 mps 669 mmHg 69%
    08:00 +13°C° 0 mm 2 mps 669 mmHg 53%
    09:00 +14°C° 0 mm 2 mps 670 mmHg 37%
    10:00 +14°C° 0 mm 3 mps 670 mmHg 35%
    11:00 +16°C° 0 mm 3 mps 670 mmHg 33%
    12:00 +17°C° 0 mm 4 mps 670 mmHg 30%
    13:00 +16°C° 0 mm 5 mps 670 mmHg 33%
    14:00 +16°C° 0 mm 5 mps 670 mmHg 37%
    15:00 +16°C° 0 mm 6 mps 670 mmHg 40%
    16:00 +15°C° 0 mm 5 mps 670 mmHg 45%
    17:00 +14°C° 0 mm 4 mps 670 mmHg 50%
    18:00 +13°C° 0 mm 3 mps 670 mmHg 55%
    19:00 +12°C° 0 mm 3 mps 670 mmHg 59%
    20:00 +12°C° 0 mm 3 mps 670 mmHg 63%
    21:00 +11°C° 0 mm 3 mps 671 mmHg 67%
    22:00 +12°C° 0 mm 2 mps 671 mmHg 69%
    23:00 +10°C° 0 mm 2 mps 670 mmHg 72%

    Pasado mañana, 25 Octubre, Viernes

    Tiempo Temperatura Precipitaciones Viento Presión Humedad
    00:00 +9°C° 0 mm 2 mps 670 mmHg 74%
    01:00 +9°C° 0 mm 2 mps 670 mmHg 76%
    02:00 +9°C° 0 mm 2 mps 670 mmHg 77%
    03:00 +8°C° 0 mm 2 mps 670 mmHg 79%
    04:00 +8°C° 0 mm 2 mps 670 mmHg 80%
    05:00 +8°C° 0 mm 2 mps 670 mmHg 81%
    06:00 +8°C° 0 mm 2 mps 670 mmHg 82%
    07:00 +9°C° 0 mm 2 mps 671 mmHg 76%
    08:00 +12°C° 0 mm 2 mps 671 mmHg 71%
    09:00 +12°C° 0 mm 3 mps 672 mmHg 65%
    10:00 +13°C° 0 mm 3 mps 672 mmHg 60%
    11:00 +14°C° 0 mm 4 mps 672 mmHg 54%
    12:00 +15°C° 0 mm 4 mps 672 mmHg 49%
    13:00 +15°C° 0 mm 5 mps 672 mmHg 51%
    14:00 +14°C° 0 mm 5 mps 672 mmHg 53%
    15:00 +14°C° 0 mm 6 mps 671 mmHg 55%
    16:00 +13°C° 0 mm 5 mps 671 mmHg 61%
    17:00 +12°C° 0 mm 3 mps 671 mmHg 66%
    18:00 +12°C° 0 mm 2 mps 671 mmHg 71%
    19:00 +12°C° 0 mm 2 mps 671 mmHg 72%
    20:00 +12°C° 0 mm 1 mps 671 mmHg 74%
    21:00 +11°C° 0 mm 1 mps 672 mmHg 75%
    22:00 +11°C° 0 mm 1 mps 671 mmHg 76%
    23:00 +11°C° 0 mm 1 mps 671 mmHg 76%

    26 Octubre, Sábado

    Tiempo Temperatura Precipitaciones Viento Presión Humedad
    00:00 +11°C° 0 mm 1 mps 671 mmHg 77%
    01:00 +11°C° 0 mm 1 mps 670 mmHg 77%
    02:00 +9°C° 0 mm 2 mps 670 mmHg 78%
    03:00 +9°C° 0 mm 2 mps 670 mmHg 78%
    04:00 +9°C° 0 mm 2 mps 670 mmHg 77%
    05:00 +9°C° 0 mm 2 mps 670 mmHg 76%
    06:00 +9°C° 0 mm 2 mps 670 mmHg 74%
    07:00 +10°C° 0 mm 2 mps 670 mmHg 70%
    08:00 +12°C° 0 mm 2 mps 671 mmHg 65%
    09:00 +13°C° 0 mm 2 mps 671 mmHg 60%
    10:00 +13°C° 0.2 mm 2 mps 671 mmHg 61%
    11:00 +12°C° 0.2 mm 3 mps 671 mmHg 62%
    12:00 +12°C° 0.2 mm 3 mps 670 mmHg 64%
    13:00 +12°C° 1.6 mm 3 mps 670 mmHg 69%
    14:00 +11°C° 1.6 mm 3 mps 670 mmHg 75%
    15:00 +10°C° 1.6 mm 3 mps 669 mmHg 80%
    16:00 +10°C° 0.3 mm 2 mps 670 mmHg 80%
    17:00 +10°C° 0.3 mm 2 mps 670 mmHg 80%
    18:00 +11°C° 0.3 mm 1 mps 670 mmHg 80%
    19:00 +11°C° 0 mm 1 mps 670 mmHg 79%
    20:00 +11°C° 0 mm 1 mps 670 mmHg 79%
    21:00 +11°C° 0 mm 1 mps 670 mmHg 78%
    22:00 +11°C° 0 mm 1 mps 670 mmHg 81%
    23:00 +10°C° 0 mm 1 mps 670 mmHg 84%

    27 Octubre, Domingo

    Tiempo Temperatura Precipitaciones Viento Presión Humedad
    00:00 +10°C° 0 mm 1 mps 670 mmHg 87%
    01:00 +10°C° 0 mm 1 mps 670 mmHg 88%
    02:00 +9°C° 0 mm 1 mps 669 mmHg 89%
    03:00 +9°C° 0 mm 1 mps 669 mmHg 90%
    04:00 +9°C° 0 mm 1 mps 669 mmHg 90%
    05:00 +9°C° 0 mm 1 mps 669 mmHg 90%
    06:00 +9°C° 0 mm 1 mps 669 mmHg 90%
    07:00 +10°C° 0 mm 1 mps 670 mmHg 83%
    08:00 +11°C° 0 mm 1 mps 671 mmHg 75%
    09:00 +13°C° 0 mm 1 mps 671 mmHg 68%
    10:00 +13°C° 0 mm 1 mps 671 mmHg 64%
    11:00 +14°C° 0 mm 1 mps 671 mmHg 61%
    12:00 +14°C° 0 mm 1 mps 671 mmHg 57%
    13:00 +15°C° 0.1 mm 2 mps 671 mmHg 56%
    14:00 +15°C° 0.1 mm 2 mps 671 mmHg 55%
    15:00 +15°C° 0.1 mm 2 mps 670 mmHg 55%
    16:00 +14°C° 0 mm 2 mps 670 mmHg 59%
    17:00 +14°C° 0 mm 2 mps 670 mmHg 63%
    18:00 +13°C° 0 mm 2 mps 670 mmHg 67%
    19:00 +12°C° 0 mm 2 mps 670 mmHg 70%
    20:00 +12°C° 0 mm 2 mps 671 mmHg 73%
    21:00 +12°C° 0 mm 2 mps 671 mmHg 77%
    22:00 +10°C° 0 mm 2 mps 671 mmHg 79%
    23:00 +10°C° 0 mm 2 mps 671 mmHg 82%

    28 Octubre, Lunes

    Tiempo Temperatura Precipitaciones Viento Presión Humedad
    00:00 +10°C° 0 mm 2 mps 671 mmHg 85%
    01:00 +10°C° 0 mm 2 mps 670 mmHg 86%
    02:00 +10°C° 0 mm 2 mps 670 mmHg 87%
    03:00 +9°C° 0 mm 2 mps 670 mmHg 89%
    04:00 +9°C° 0 mm 2 mps 670 mmHg 90%
    05:00 +9°C° 0 mm 2 mps 670 mmHg 91%
    06:00 +9°C° 0 mm 2 mps 670 mmHg 92%
    07:00 +10°C° 0 mm 3 mps 670 mmHg 84%
    08:00 +12°C° 0 mm 3 mps 671 mmHg 75%
    09:00 +13°C° 0 mm 4 mps 671 mmHg 67%
    10:00 +14°C° 0 mm 4 mps 672 mmHg 64%
    11:00 +15°C° 0 mm 4 mps 672 mmHg 61%
    12:00 +17°C° 0 mm 4 mps 672 mmHg 58%
    13:00 +17°C° 0 mm 4 mps 671 mmHg 61%
    14:00 +17°C° 0 mm 4 mps 671 mmHg 64%
    15:00 +15°C° 0 mm 4 mps 671 mmHg 66%
    16:00 +15°C° 0.1 mm 4 mps 670 mmHg 72%
    17:00 +14°C° 0.1 mm 4 mps 670 mmHg 77%
    18:00 +13°C° 0.1 mm 3 mps 670 mmHg 82%
    19:00 +13°C° 0 mm 3 mps 670 mmHg 85%
    20:00 +13°C° 0 mm 3 mps 671 mmHg 88%
    21:00 +13°C° 0 mm 2 mps 671 mmHg 91%
    22:00 +13°C° 0 mm 2 mps 671 mmHg 92%
    23:00 +13°C° 0 mm 2 mps 671 mmHg 92%

    29 Octubre, Martes

    Tiempo Temperatura Precipitaciones Viento Presión Humedad
    00:00 +13°C° 0 mm 2 mps 671 mmHg 92%
    01:00 +13°C° 0 mm 2 mps 671 mmHg 92%
    02:00 +13°C° 0 mm 2 mps 671 mmHg 92%
    03:00 +13°C° 0 mm 2 mps 670 mmHg 93%
    04:00 +13°C° 0 mm 2 mps 671 mmHg 93%
    05:00 +12°C° 0 mm 2 mps 671 mmHg 93%
    06:00 +12°C° 0 mm 2 mps 671 mmHg 93%
    07:00 +14°C° 0 mm 2 mps 671 mmHg 84%
    08:00 +15°C° 0 mm 2 mps 672 mmHg 74%
    09:00 +17°C° 0 mm 2 mps 673 mmHg 65%
    10:00 +18°C° 0 mm 2 mps 673 mmHg 59%
    11:00 +19°C° 0 mm 2 mps 673 mmHg 53%
    12:00 +20°C° 0 mm 2 mps 673 mmHg 48%
    13:00 +20°C° 0 mm 2 mps 673 mmHg 47%
    14:00 +21°C° 0 mm 2 mps 673 mmHg 46%
    15:00 +21°C° 0 mm 2 mps 673 mmHg 45%
    16:00 +20°C° 0 mm 2 mps 673 mmHg 48%
    17:00 +19°C° 0 mm 2 mps 673 mmHg 52%
    18:00 +19°C° 0 mm 2 mps 674 mmHg 56%
    19:00 +18°C° 0 mm 2 mps 674 mmHg 57%
    20:00 +18°C° 0 mm 2 mps 674 mmHg 59%
    21:00 +17°C° 0 mm 2 mps 675 mmHg 61%
    22:00 +18°C° 0 mm 1 mps 674 mmHg 64%
    23:00 +16°C° 0 mm 1 mps 674 mmHg 67%
    Mostrar más